Weather History for Clayton Lake, ME

Change the Weather History Date:

Friday, May 11, 2012

  Actual Average Record
Temperature  
Mean Temperature 43 °F -  
Max Temperature 48 °F 57 °F 79 °F (2001)
Min Temperature 39 °F 33 °F 27 °F (2002)
Degree Days  
Heating Degree Days 22    
Moisture  
Dew Point 37 °F    
Average Humidity 77    
Maximum Humidity 89    
Minimum Humidity 64    
Precipitation  
Precipitation 0.02 in - - ()
Sea Level Pressure  
Sea Level Pressure 29.72 in    
Wind  
Wind Speed 4 mph (WSW)    
Max Wind Speed 9 mph    
Max Gust Speed 21 mph    
Averages and records for this station are not official NWS values.
T = Trace of Precipitation, MM = Missing Value Source: NWS Daily Summary

Daily Weather History Graph

Daily Weather History Graph

Search for Another Location

Airport:

Trip Planner

Search our weather history database for the weather conditions in past years. The results will help you decide how hot, cold, wet, or windy it might be!

Date:

Astronomy

May. 11, 2012 Rise Set
Actual Time 5:08 AM EDT 8:01 PM EDT
Civil Twilight 4:33 AM EDT 8:36 PM EDT
Nautical Twilight 3:48 AM EDT 9:21 PM EDT
Astronomical Twilight 2:55 AM EDT 10:15 PM EDT
Moon 12:36 AM EDT (5/11) 10:41 AM EDT (5/11)
Length of Visible Light 16h 03m
Length of Day
14h 52m
Waning Gibbous, 63% of the Moon is Illuminated
May 11
Waning Gibbous
May 12
Last Quarter
May 20
New
May 28
First Quarter
Jun 4
Full

Hourly Weather History & Observations

Time (EDT) Temp. Windchill Dew Point Humidity Pressure Visibility Wind Dir Wind Speed Gust Speed Precip Events Conditions
12:25 AM 41.0 °F 39.0 °F - N/A% 29.49 in - Variable 3.5 mph - 0.02 in   Unknown
1:25 AM 40.8 °F - - N/A% 29.49 in - Calm Calm - 0.01 in   Unknown
2:25 AM 40.3 °F - - N/A% 29.51 in - Calm Calm - N/A   Unknown
3:25 AM 42.3 °F 39.4 °F - N/A% 29.53 in - Variable 4.6 mph - N/A   Unknown
4:25 AM 41.5 °F 37.1 °F - N/A% 29.55 in - Variable 6.9 mph 15.0 mph N/A   Unknown
5:25 AM 40.8 °F 36.2 °F - N/A% 29.56 in - Variable 6.9 mph 16.1 mph N/A   Unknown
6:25 AM 39.6 °F 37.4 °F - N/A% 29.60 in - Variable 3.5 mph 13.8 mph N/A   Unknown
7:25 AM 40.6 °F 36.0 °F 37.6 °F 89% 29.62 in - SSW 6.9 mph 16.1 mph N/A   Unknown
8:25 AM 42.1 °F 37.7 °F 37.8 °F 85% 29.63 in - Variable 6.9 mph 18.4 mph N/A   Unknown
9:25 AM 43.0 °F 38.8 °F 37.0 °F 80% 29.65 in - WSW 6.9 mph 16.1 mph N/A   Unknown
10:25 AM 43.5 °F 40.9 °F 37.9 °F 81% 29.68 in - Variable 4.6 mph 19.6 mph N/A   Unknown
11:25 AM 43.9 °F 38.8 °F 36.0 °F 74% 29.71 in - WSW 9.2 mph 17.3 mph N/A   Unknown
12:25 PM 44.6 °F 40.2 °F 36.9 °F 74% 29.74 in - WSW 8.1 mph 19.6 mph 0.00 in   Unknown
1:25 PM 43.5 °F 38.9 °F 36.5 °F 76% 29.76 in - SW 8.1 mph 20.7 mph N/A   Unknown
2:25 PM 45.7 °F 41.5 °F 34.2 °F 64% 29.78 in - WSW 8.1 mph 20.7 mph N/A   Unknown
3:25 PM 44.6 °F 42.2 °F 38.1 °F 78% 29.82 in - Variable 4.6 mph 15.0 mph N/A   Unknown
4:25 PM 47.1 °F - 39.6 °F 75% 29.83 in - Variable 6.9 mph 13.8 mph 0.01 in   Unknown
5:25 PM 46.2 °F 44.1 °F 37.6 °F 72% 29.86 in - Variable 4.6 mph - N/A   Unknown
6:25 PM 45.0 °F - 37.4 °F 75% 29.88 in - Calm Calm - N/A   Unknown
7:25 PM 45.0 °F - 39.7 °F 82% 29.88 in - Calm Calm - N/A   Unknown
8:25 PM 42.8 °F - - N/A% 29.89 in - Calm Calm - N/A   Unknown
9:25 PM 41.7 °F - - N/A% 29.91 in - Calm Calm - N/A   Unknown
10:25 PM 41.2 °F - - N/A% 29.92 in - Calm Calm - N/A   Unknown
11:25 PM 40.1 °F - - N/A% 29.93 in - Calm Calm - N/A   Unknown